Location: Lecco
(45.8566°N, 9.3977°E)
Time: 08:31:32
(UTC+02:00)

Altair - Pass Details

Date: 22 August 2020
Orbit: 1501 x 1682 km, 47.2° (Epoch: 25 September)

Event Time Altitude Azimuth Distance (km) Brightness Sun altitude
Rises 02:02:52 0° 248° (WSW) 4,870 - -31.8°
Reaches altitude 10° 02:06:02 10° 248° (WSW) 3,863 - -31.7°
Exits shadow 02:12:50 51° 245° (WSW) 1,951 7.7 -31.5°
Maximum altitude 02:15:54 85° 163° (SSE) 1,596 7.4 -31.3°
Drops below altitude 10° 02:25:23 10° 75° (ENE) 3,724 9.8 -30.9°
Sets 02:28:23 0° 76° (ENE) 4,689 10.5 -30.7°
